Temperature
29 29 30 29 29 29 30 30 30 30 31 31 30 29 28 26 25 24 23 23 22 22 21 21 21 20 20 20 20 19 19 19 18 18 18 18 17 17 17 17 16 16 16 16
27 28 29 29 29 29 30 30 30 30 30 31 29 28 27 26 25 24 23 23 22 21 21 21 20 20 20 20 20 19 19 18 18 18 18 17 17 17 16 16 16 16 15 15
27 28 28 28 29 29 29 30 30 30 30 29 28 27 26 25 24 24 23 22 22 21 21 20 20 20 20 20 19 19 19 18 18 18 17 17 16 16 16 16 15 15 15 15
27 26 25 28 29 30 29 29 30 30 29 29 28 26 25 24 24 23 23 22 21 21 21 20 20 20 20 20 19 19 18 18 18 17 17 16 16 16 15 15 15 14 14 14
27 26 27 27 28 28 28 28 29 29 29 28 26 26 25 24 23 23 22 22 21 21 20 20 20 20 19 19 19 18 18 18 17 17 16 16 15 15 15 14 14 14 14 13
26 26 26 27 28 27 28 27 28 28 27 27 26 28 27 23 23 22 22 21 21 20 20 20 19 19 19 18 18 18 18 17 17 16 16 15 15 15 14 14 14 14 13 13
25 26 27 27 26 26 26 27 26 26 26 26 26 27 24 22 22 21 21 20 20 20 20 19 19 19 18 18 18 18 17 17 16 16 16 15 15 14 14 14 14 13 13 13
25 25 26 25 26 26 25 24 25 25 25 24 24 23 22 21 20 20 20 20 20 20 19 19 19 18 18 18 17 17 17 16 16 16 15 15 14 14 14 13 13 13 13 12
25 25 23 23 23 22 22 23 23 23 23 23 22 21 21 20 19 19 19 19 19 19 19 18 18 18 18 17 17 17 16 16 16 15 15 15 14 14 13 13 13 13 12 12
22 23 22 21 21 21 21 22 22 21 21 22 21 21 20 19 18 18 18 18 18 18 18 18 17 17 17 17 17 16 16 15 15 15 14 14 14 13 13 13 13 12 12 12
22 22 21 21 20 20 20 20 20 20 20 20 20 20 19 18 18 18 18 18 18 18 18 17 17 17 16 16 16 16 15 15 14 14 13 13 13 13 13 13 12 12 12 12
22 20 21 20 19 19 19 19 19 19 19 19 19 19 18 18 18 18 18 17 17 17 17 16 16 16 16 16 16 15 14 14 14 13 13 13 13 13 12 12 12 12 12 11
18 18 18 18 18 18 18 18 18 18 19 18 18 18 18 17 17 17 17 17 17 16 16 16 16 15 15 15 15 15 14 14 13 13 13 13 13 12 12 12 11 11 11 11
16 17 17 17 17 17 17 17 17 17 17 18 17 17 17 17 17 17 16 16 16 16 16 15 15 15 15 14 14 14 14 14 13 13 13 13 12 12 12 11 11 11 11 11
16 16 17 16 16 16 16 17 17 17 17 16 17 16 16 16 16 16 16 16 16 15 15 15 15 14 14 14 14 14 13 13 13 13 13 12 12 12 12 11 11 11 11 10
16 16 16 16 16 16 16 16 17 16 16 16 16 16 16 16 15 15 15 15 15 15 14 14 14 14 14 14 14 13 13 13 13 13 12 12 12 12 12 11 11 10 10 10
16 16 16 16 16 16 16 16 16 16 16 15 15 15 15 15 14 14 14 14 14 14 14 14 14 14 14 14 13 13 13 12 12 12 12 12 12 12 11 11 11 10 10 10
15 15 15 16 16 15 15 15 15 15 15 15 14 14 14 14 14 14 14 14 13 13 13 13 13 13 13 13 13 13 12 12 12 12 12 11 11 11 11 11 11 10 10 10
15 15 15 14 15 15 15 15 15 14 14 14 14 14 13 13 13 13 13 13 13 13 13 13 13 13 13 13 13 12 12 12 12 11 11 11 11 11 11 11 10 10 10 10
14 14 14 14 14 14 14 14 14 14 14 14 13 13 13 13 13 13 13 13 13 13 13 13 13 12 12 13 12 12 12 12 11 11 11 11 11 11 11 11 10 10 10 10
13 13 13 14 14 14 14 13 13 13 13 13 13 13 13 12 12 12 12 12 12 12 12 12 12 12 12 12 12 12 12 12 11 11 11 11 11 11 11 10 10 10 10 10
12 13 13 13 13 13 13 13 13 13 13 13 12 12 12 12 12 12 12 12 12 12 12 12 12 12 12 12 12 11 11 11 11 11 11 11 11 11 10 10 10 10 10 9
12 12 12 12 12 12 12 12 12 12 12 12 12 12 12 12 12 12 12 12 12 12 11 11 11 11 11 11 11 11 11 11 11 11 11 11 11 10 10 10 10 10 9 9
11 11 12 11 12 12 12 12 12 12 12 12 12 12 12 12 11 12 11 12 11 11 11 11 11 11 11 11 11 11 11 11 11 11 11 11 10 10 10 10 10 10 9 9
11 11 11 11 11 11 11 11 11 11 11 11 11 11 11 11 11 11 11 11 11 11 11 11 11 11 11 11 11 10 10 11 11 11 11 11 11 10 10 10 10 9 9 9
11 11 11 11 11 11 11 11 11 11 11 11 11 11 11 11 11 11 11 11 11 11 11 10 10 10 10 10 10 10 10 10 10 10 10 10 10 10 10 10 9 9 9 9
10 10 10 10 10 11 11 11 11 11 11 11 11 11 11 11 11 11 11 11 10 10 10 10 10 10 10 10 10 10 10 10 10 10 10 10 10 10 9 9 9 9 8 8
Wind_Speed
12 9 12 15 16 17 17 16 13 11 10 7 5 4 5 7 8 9 9 9 9 9 9 8 8 8 8 8 8 7 7 6 6 5 5 4 4 4 4 4 4 4 5 5
13 12 12 14 16 17 17 15 14 12 10 4 4 5 6 7 8 8 9 9 9 9 9 9 9 8 9 8 8 8 7 7 6 5 5 5 5 5 5 5 5 5 6 6
13 13 13 17 17 16 15 14 14 13 9 6 6 7 7 7 8 8 9 9 9 9 9 8 8 9 9 9 9 8 7 7 7 6 6 5 6 5 5 5 6 6 6 7
11 12 16 11 9 13 14 13 12 10 7 8 6 5 5 6 8 8 9 9 9 9 9 9 9 9 9 9 9 8 8 7 6 6 6 6 6 6 5 5 6 6 7 7
11 15 14 8 8 11 13 12 10 10 9 8 7 6 5 6 7 7 8 8 9 9 9 9 9 9 9 9 8 8 8 7 7 7 6 6 6 6 6 6 6 6 6 7
12 14 14 9 8 7 10 12 8 9 9 9 10 9 6 6 7 7 8 8 8 9 9 9 8 9 9 8 8 7 7 7 7 7 7 7 7 7 6 6 6 6 7 6
14 13 9 3 5 9 12 7 5 8 9 10 9 5 5 7 7 7 8 8 9 9 9 8 8 9 9 8 7 7 7 7 7 7 7 7 7 7 6 6 7 7 7 6
13 14 9 4 6 8 2 0 4 6 7 7 6 5 6 7 7 8 8 9 9 9 8 7 8 8 8 7 7 7 7 8 8 7 7 7 8 7 7 7 7 7 6 6
6 5 3 2 2 0 1 2 2 4 5 6 7 7 7 8 8 8 9 9 8 9 9 7 7 8 8 7 8 8 8 8 8 8 7 7 8 7 6 6 5 5 5 5
3 3 2 1 1 1 1 2 2 3 5 6 7 8 8 7 8 8 8 8 8 9 9 8 7 7 7 8 8 8 9 8 8 8 8 7 6 5 5 5 5 5 5 5
5 4 3 2 0 0 0 1 3 3 4 6 7 7 8 7 8 7 7 7 8 8 8 8 7 7 8 8 9 9 8 8 8 7 7 7 6 4 3 3 2 3 4 4
4 3 2 1 1 1 1 2 3 3 4 5 6 7 7 7 7 7 8 8 8 8 8 8 8 7 7 8 8 9 8 7 6 6 6 6 7 6 10 8 8 8 7 3
2 1 1 0 1 1 2 2 1 3 4 4 4 5 6 6 6 7 8 8 9 9 8 8 8 7 7 7 8 8 8 7 6 6 7 7 7 7 6 5 8 8 7 6
2 2 2 1 1 1 2 1 2 3 3 3 4 5 6 6 6 7 7 8 9 9 9 8 8 7 6 7 7 8 8 7 6 6 6 6 6 7 6 7 6 5 5 7
3 3 2 1 1 1 1 2 3 3 3 3 4 5 6 6 6 6 6 7 8 9 8 8 8 7 7 7 7 7 7 6 6 6 6 6 6 6 6 6 6 6 6 6
3 3 3 3 2 1 1 1 2 2 2 3 4 5 5 6 6 6 6 7 8 8 8 8 7 7 8 8 8 6 5 6 6 6 6 7 6 6 6 7 6 6 6 6
5 5 5 4 3 3 2 1 1 1 2 3 4 5 6 6 7 6 6 6 6 7 7 7 7 7 8 8 8 6 6 7 7 6 6 6 6 6 6 6 6 6 5 5
5 5 5 4 3 3 2 2 2 2 2 3 4 6 6 7 7 7 6 6 6 6 5 6 7 7 7 7 7 6 6 6 6 6 6 6 6 6 6 6 7 7 6 7
4 4 4 4 4 3 2 2 2 2 3 3 4 5 5 6 6 6 6 7 7 6 5 6 7 7 7 7 6 5 6 6 6 6 6 6 6 6 6 6 6 6 6 6
3 3 4 4 4 4 3 3 3 3 3 4 5 5 5 6 6 6 6 5 4 4 5 6 7 6 7 7 6 6 6 7 7 7 7 7 6 6 6 6 6 6 6 6
2 3 3 3 3 3 3 4 4 4 4 5 5 6 5 5 6 6 6 5 4 5 6 6 6 6 6 6 6 6 6 6 7 7 7 6 6 6 6 6 6 6 6 6
1 2 3 3 3 3 3 3 3 4 5 5 5 5 6 6 6 5 5 4 5 6 6 6 5 6 6 7 6 5 6 6 6 6 6 6 6 6 6 6 6 5 5 5
1 2 2 3 3 3 3 3 3 4 5 5 5 6 6 5 5 5 4 4 5 6 5 5 6 9 7 6 6 6 6 6 6 6 6 6 6 5 5 6 5 5 5 5
1 1 2 2 3 3 3 3 3 3 4 5 5 6 5 5 4 4 4 6 6 7 5 7 10 9 7 5 5 5 6 6 5 6 6 6 6 5 5 5 5 5 5 6
1 2 3 3 3 3 3 3 4 5 5 5 5 5 5 4 4 4 5 7 8 7 6 8 9 8 6 5 5 5 5 4 4 4 5 5 5 5 5 5 5 4 5 5
1 2 2 2 2 2 3 4 4 4 4 4 4 4 4 4 5 5 5 7 8 6 6 6 7 7 5 5 5 5 5 5 5 4 4 4 5 5 4 5 5 4 4 4
2 2 2 3 3 3 3 3 4 5 5 5 5 5 5 5 5 6 6 6 6 6 6 6 6 6 6 5 5 5 5 5 4 4 4 3 3 4 4 5 4 4 4 4
Wind_Direction
236 224 208 210 210 211 221 231 236 230 237 226 201 185 168 163 160 155 154 156 153 149 146 147 147 145 144 140 137 137 138 135 131 127 123 118 110 103 95 88 82 73 70 68
223 222 219 221 217 216 222 229 236 239 236 221 184 177 174 171 169 168 164 162 158 153 150 152 153 150 145 141 138 138 136 132 130 129 126 121 118 113 106 94 85 81 76 74
217 211 216 223 219 216 218 223 229 231 228 193 192 190 183 178 178 176 171 167 163 160 156 156 155 151 148 145 142 140 138 137 138 138 132 129 126 118 109 102 95 88 84 81
217 203 223 224 215 221 222 224 227 234 221 205 202 188 186 188 182 176 174 169 165 161 156 155 150 149 146 145 145 144 142 140 140 141 134 128 123 115 107 100 97 92 86 85
217 215 220 211 205 212 217 225 225 224 213 201 181 178 189 188 183 179 173 166 162 159 153 149 149 147 145 147 148 148 147 146 145 143 138 136 129 120 114 109 103 97 92 88
220 226 223 206 188 204 217 224 214 213 205 193 192 209 194 165 168 164 158 155 152 149 144 144 147 148 149 151 152 150 148 147 143 142 142 138 131 127 121 116 111 105 94 90
219 224 224 174 180 193 214 215 193 202 200 199 209 226 155 156 154 150 147 147 146 144 142 142 147 151 151 151 151 147 144 141 141 140 137 131 126 125 125 122 114 106 100 93
218 223 214 150 184 203 226 173 193 198 195 195 184 163 158 153 150 151 150 149 146 142 139 141 148 152 151 150 144 141 141 140 138 135 133 130 128 127 127 125 121 117 111 106
224 221 97 143 176 87 306 245 213 197 189 176 168 163 158 152 149 151 151 148 147 144 141 143 150 153 152 148 146 144 143 140 136 132 128 133 136 136 137 139 136 135 132 124
216 194 175 167 200 280 288 243 206 182 178 171 163 157 150 147 147 149 147 146 148 146 144 144 149 150 146 144 148 146 143 140 139 137 134 132 137 139 143 145 146 146 141 134
215 200 188 187 176 350 59 132 146 151 166 166 159 156 151 149 149 151 149 146 147 146 145 145 144 142 143 146 148 146 146 145 146 145 139 134 125 100 126 112 109 144 144 145
225 194 222 163 75 95 130 122 128 144 144 146 154 154 153 151 151 153 151 147 143 141 142 143 142 140 144 150 151 150 151 154 154 148 143 142 132 105 52 59 64 56 49 70
267 302 316 4 37 82 97 97 122 139 139 144 148 149 150 147 150 151 150 147 143 142 142 143 143 143 149 155 157 158 155 159 161 156 155 154 151 148 137 94 71 67 68 73
208 190 191 179 119 81 95 96 94 99 116 136 146 148 147 145 146 149 150 147 144 142 143 143 144 148 153 158 159 157 157 158 166 163 159 160 159 156 153 153 149 129 100 103
198 203 199 194 162 126 126 113 107 106 111 127 143 147 147 143 143 145 145 144 143 142 144 148 150 152 154 155 158 159 161 162 163 155 155 157 157 155 153 157 153 144 137 128
205 200 204 195 188 198 195 155 132 127 125 134 140 141 142 138 136 137 144 149 150 149 150 151 150 153 156 155 155 158 157 147 157 157 156 156 160 162 160 159 157 155 154 148
215 212 208 201 197 192 194 180 138 131 130 133 138 140 140 137 139 145 147 148 145 143 149 152 152 154 158 159 160 159 155 153 158 164 164 163 165 166 162 162 160 158 156 143
225 221 216 212 206 194 192 185 154 140 137 135 141 147 150 151 153 152 150 145 140 138 144 151 150 153 157 160 160 155 158 162 168 166 161 164 163 164 162 163 162 158 150 147
211 209 212 212 211 207 206 196 174 155 144 146 149 154 159 157 154 154 153 153 152 154 160 152 147 158 157 155 151 155 161 160 163 161 157 154 164 163 162 164 164 162 163 163
199 199 202 205 206 205 201 194 186 172 165 161 156 155 159 156 154 152 153 160 166 160 153 150 156 160 158 157 168 163 160 160 162 159 161 165 165 166 167 168 167 167 170 168
193 191 190 197 200 200 194 188 180 174 168 166 162 159 157 154 157 157 160 159 154 147 148 151 163 161 162 160 178 166 160 160 163 163 167 168 169 171 169 167 168 167 168 166
205 189 182 183 184 185 181 177 172 168 162 162 158 153 153 154 156 158 162 162 157 152 161 168 168 152 155 163 166 159 155 155 159 164 167 167 168 169 169 171 171 167 168 168
205 192 186 185 182 177 171 168 167 167 164 164 162 163 163 160 163 160 158 158 159 160 165 157 137 136 156 173 160 158 160 164 168 170 169 172 173 174 173 174 172 172 173 171
154 160 170 171 169 167 168 167 162 164 165 165 166 166 165 164 166 165 145 136 140 151 155 129 133 148 173 164 157 160 164 169 174 176 176 176 175 174 171 171 175 176 173 172
182 181 177 175 170 167 161 162 164 164 162 159 158 159 167 167 160 151 141 141 143 148 141 136 146 164 173 158 159 162 167 169 169 171 171 172 170 164 163 167 172 172 172 173
156 173 166 167 164 164 168 170 167 162 157 150 148 150 150 149 147 145 144 145 147 150 148 146 154 169 167 161 159 158 156 153 162 171 161 162 161 155 151 154 158 164 164 165
107 133 150 152 150 158 159 162 162 162 159 154 149 146 147 146 145 146 147 149 151 153 150 150 154 158 157 156 152 151 151 152 154 154 152 154 152 148 147 152 157 159 163 165
Height
1482 1480 1482 1487 1490 1492 1493 1492 1496 1495 1494 1492 1495 1499 1504 1507 1511 1514 1517 1519 1522 1524 1526 1528 1530 1532 1535 1536 1538 1539 1540 1542 1542 1543 1543 1544 1544 1543 1543 1543 1543 1542 1542 1541
1488 1483 1484 1486 1485 1487 1489 1489 1490 1490 1492 1490 1496 1500 1504 1507 1510 1512 1515 1518 1521 1523 1525 1527 1529 1531 1533 1535 1537 1538 1539 1541 1542 1542 1543 1543 1543 1544 1544 1543 1543 1543 1542 1542
1488 1484 1487 1491 1483 1484 1486 1485 1487 1490 1489 1492 1496 1499 1502 1506 1508 1511 1514 1516 1519 1521 1523 1526 1528 1530 1532 1534 1535 1537 1538 1540 1541 1542 1542 1543 1543 1544 1544 1544 1543 1543 1543 1543
1484 1491 1503 1481 1475 1477 1481 1482 1483 1485 1488 1492 1496 1499 1503 1505 1507 1510 1512 1515 1517 1519 1522 1525 1527 1529 1531 1533 1534 1536 1537 1538 1540 1541 1541 1542 1543 1544 1544 1544 1544 1544 1544 1543
1483 1488 1486 1480 1477 1478 1482 1483 1482 1484 1488 1491 1495 1499 1501 1503 1506 1508 1510 1513 1516 1518 1521 1523 1525 1527 1529 1532 1533 1535 1536 1537 1538 1540 1541 1542 1542 1543 1544 1544 1544 1545 1544 1544
1483 1487 1489 1477 1474 1478 1481 1485 1482 1484 1487 1490 1493 1493 1496 1501 1504 1506 1509 1511 1514 1517 1519 1521 1524 1526 1528 1530 1532 1533 1535 1536 1537 1539 1540 1541 1542 1543 1544 1544 1545 1545 1545 1545
1480 1482 1474 1472 1475 1479 1487 1484 1482 1484 1486 1489 1490 1490 1495 1499 1502 1505 1507 1509 1512 1515 1517 1520 1522 1524 1527 1528 1530 1532 1533 1535 1536 1538 1539 1540 1541 1542 1543 1545 1545 1545 1546 1546
1476 1480 1479 1474 1475 1477 1479 1481 1482 1483 1486 1488 1490 1492 1495 1498 1500 1503 1505 1508 1511 1513 1516 1518 1520 1523 1525 1527 1529 1530 1532 1533 1535 1537 1538 1540 1541 1542 1544 1545 1545 1546 1546 1547
1471 1474 1476 1477 1478 1480 1481 1482 1483 1484 1486 1488 1490 1492 1494 1497 1499 1502 1504 1507 1509 1512 1514 1517 1519 1521 1523 1525 1527 1529 1531 1532 1534 1536 1537 1539 1540 1542 1543 1544 1546 1546 1547 1548
1475 1474 1477 1479 1480 1481 1482 1482 1483 1484 1486 1487 1489 1491 1494 1496 1498 1501 1504 1506 1508 1510 1513 1515 1517 1520 1522 1524 1526 1528 1530 1532 1533 1535 1536 1538 1540 1542 1543 1544 1545 1547 1547 1548
1475 1477 1478 1479 1481 1481 1482 1482 1483 1484 1486 1487 1489 1491 1493 1495 1497 1499 1502 1504 1507 1509 1511 1514 1516 1519 1521 1522 1524 1527 1529 1531 1533 1535 1536 1537 1539 1541 1543 1544 1545 1546 1547 1547
1472 1477 1478 1480 1481 1481 1481 1482 1483 1484 1486 1487 1489 1490 1492 1494 1496 1498 1500 1503 1505 1508 1511 1513 1515 1518 1520 1522 1523 1525 1528 1531 1532 1534 1536 1537 1538 1539 1541 1543 1544 1545 1546 1547
1478 1479 1480 1481 1481 1481 1481 1482 1483 1484 1485 1487 1489 1490 1491 1493 1495 1497 1499 1501 1504 1507 1509 1512 1514 1516 1519 1521 1522 1524 1526 1529 1531 1533 1534 1536 1537 1539 1541 1543 1544 1545 1545 1546
1479 1479 1480 1481 1481 1482 1482 1482 1483 1484 1485 1487 1488 1490 1491 1493 1495 1496 1499 1501 1503 1505 1508 1510 1513 1515 1517 1519 1521 1523 1525 1527 1529 1530 1532 1534 1536 1538 1540 1541 1543 1544 1545 1545
1479 1479 1480 1481 1482 1482 1483 1483 1484 1484 1485 1487 1488 1489 1491 1492 1494 1496 1498 1500 1502 1504 1506 1508 1511 1513 1515 1518 1520 1522 1524 1526 1528 1529 1530 1533 1535 1537 1539 1541 1542 1543 1543 1544
1477 1479 1480 1480 1481 1482 1483 1483 1484 1485 1486 1486 1487 1489 1490 1492 1494 1496 1498 1500 1502 1503 1505 1507 1509 1511 1513 1515 1518 1520 1522 1523 1525 1527 1529 1532 1534 1536 1538 1540 1541 1542 1542 1543
1476 1477 1478 1479 1480 1481 1482 1483 1484 1484 1485 1486 1487 1488 1490 1491 1493 1495 1497 1499 1501 1503 1505 1506 1508 1510 1512 1514 1516 1518 1520 1522 1524 1526 1529 1531 1533 1535 1536 1538 1539 1541 1542 1542
1475 1476 1477 1478 1479 1480 1481 1482 1483 1484 1485 1485 1486 1488 1489 1491 1492 1494 1496 1498 1500 1502 1503 1505 1507 1508 1510 1512 1514 1516 1519 1521 1523 1525 1527 1529 1531 1533 1535 1536 1538 1539 1540 1541
1473 1474 1475 1477 1478 1479 1480 1481 1482 1483 1484 1485 1486 1487 1489 1490 1492 1493 1494 1496 1498 1500 1502 1504 1505 1507 1509 1511 1512 1514 1518 1520 1522 1524 1525 1527 1529 1531 1533 1534 1536 1537 1539 1540
1471 1472 1473 1474 1476 1477 1478 1480 1481 1481 1483 1484 1485 1486 1488 1490 1491 1492 1493 1495 1497 1499 1500 1502 1504 1506 1507 1509 1511 1514 1516 1518 1520 1522 1524 1526 1528 1530 1531 1533 1534 1536 1537 1539
1470 1471 1472 1473 1474 1475 1477 1478 1479 1480 1482 1483 1484 1485 1487 1488 1490 1491 1493 1495 1496 1498 1499 1501 1503 1504 1506 1508 1510 1513 1514 1517 1519 1521 1523 1525 1526 1528 1530 1532 1533 1535 1536 1537
1469 1470 1470 1472 1473 1474 1475 1477 1478 1479 1480 1482 1483 1484 1486 1487 1489 1490 1492 1494 1495 1496 1498 1500 1502 1503 1505 1507 1509 1511 1513 1515 1518 1520 1521 1523 1525 1527 1529 1530 1532 1533 1535 1536
1468 1468 1469 1470 1471 1473 1474 1475 1476 1477 1478 1480 1481 1483 1485 1486 1488 1489 1491 1493 1494 1495 1497 1499 1500 1502 1504 1506 1509 1510 1512 1514 1517 1519 1520 1522 1524 1525 1527 1529 1530 1532 1533 1534
1466 1467 1468 1469 1470 1472 1473 1474 1475 1476 1478 1479 1481 1482 1484 1485 1487 1489 1491 1492 1493 1494 1496 1498 1499 1501 1503 1506 1508 1510 1512 1514 1516 1518 1519 1521 1523 1524 1525 1526 1528 1529 1530 1532
1465 1466 1467 1468 1469 1471 1471 1473 1474 1475 1477 1479 1480 1482 1484 1485 1487 1489 1490 1491 1492 1494 1496 1497 1499 1501 1503 1505 1507 1509 1511 1513 1515 1516 1518 1520 1521 1522 1523 1525 1526 1527 1528 1529
1464 1465 1466 1467 1468 1470 1471 1472 1473 1475 1476 1478 1480 1481 1483 1485 1487 1488 1490 1491 1493 1494 1496 1498 1499 1501 1503 1505 1506 1508 1510 1512 1513 1515 1517 1518 1520 1521 1522 1523 1524 1525 1526 1527
1464 1464 1465 1467 1468 1469 1470 1471 1473 1474 1476 1477 1479 1481 1483 1485 1487 1488 1490 1492 1493 1495 1497 1498 1500 1502 1504 1505 1507 1508 1510 1512 1513 1514 1516 1517 1518 1519 1520 1521 1523 1524 1525 1526